Preview of NWS' New Version of Forecast
This preview is not operational and should not be used for support decisions.

Regional Weather Roundup (RWR)

Issued by Gray - Portland, ME (GYX)

                            
000
ASUS41 KGYX 201505
RWRGYX
WEATHER ROUNDUP FOR MAINE AND NEW HAMPSHIRE
NATIONAL WEATHER SERVICE GRAY ME
1100 AM EDT TUE AUG 20 2019

MEZ002-005-006-010-012-015-018-020-021-024-026-027-029-201600-
MAINE
  
CITY           SKY/WX    TMP DP  RH WIND       PRES   REMARKS
PORTLAND       FAIR      82  52  35 N10       30.07R                  
SANFORD        FAIR      79  58  48 CALM      30.08S                  
BAR HARBOR     FAIR      76  64  66 NW5       30.04S                  
WISCASSET      FAIR     N/A N/A N/A VRB5      30.08R                  
ROCKLAND       FAIR      78  59  51 VRB7      30.06R                  
FRYEBURG       FAIR      77  57  50 NW3       30.09S                  
LEWISTONAUBURN FAIR      77  59  53 W8        30.08S                  
AUGUSTA        FAIR      77  59  53 NW7       30.08S                  
WATERVILLE     FAIR      76  53  44 N6        30.05S                  
BANGOR         FAIR      77  60  55 NW5       30.05R                  
GREENVILLE       N/A     70  52  52 NW8       30.08R                  
MILLINOCKET    FAIR      75  55  49 W5        30.06R                  
HOULTON        FAIR      75  51  43 VRB6      30.02R                  
PRESQUE ISLE   FAIR      74  54  49 VRB5      30.03R                  
FRENCHVILLE    FAIR      72  57  59 SW7       30.00F                  
CARIBOU        FAIR      75  55  49 W8        30.00F                  
$$

NHZ002-005-008-009-011-012-014-201600-
NEW HAMPSHIRE
  
CITY           SKY/WX    TMP DP  RH WIND       PRES   REMARKS
PORTSMOUTH     MOSUNNY   81  61  50 N6        30.06S                  
ROCHESTER      FAIR      80  60  50 VRB3      30.08R                  
NASHUA         FAIR      79  60  52 CALM      30.09S                  
MANCHESTER     FAIR      81  58  45 NW5       30.07S                  
CONCORD        FAIR      79  60  52 VRB6      30.09S                  
LACONIA        FAIR      77  56  48 VRB5      30.10S                  
PLYMOUTH       FAIR      76  56  49 W7        30.09S                  
BERLIN         FAIR      75  51  43 NE3       30.11S                  
WHITEFIELD     FAIR      74  52  46 VRB3      30.11F                  
JAFFREY        FAIR      77  55  46 CALM      30.13F                  
KEENE          FAIR      76  59  55 CALM      30.11F                  
LEBANON        FAIR      77  56  48 CALM      30.11S                  
MT WASHINGTON  MOSUNNY   54  34  47 N5          N/A                   
$$

VTZ005-007-008-201600-
VERMONT
  
CITY           SKY/WX    TMP DP  RH WIND       PRES   REMARKS
ST JOHNSBURY     N/A     75  53  46 MISG      30.09S                  
MONTPELIER     FAIR      73  54  51 E5        30.16R                  
BURLINGTON     FAIR      77  54  44 VRB3      30.09F                  
$$

MAZ007-012-024-CTZ003-RIZ002-NYZ038-NYZ072-201600-
SOUTHERN NEW ENGLAND AND NY
  
CITY           SKY/WX    TMP DP  RH WIND       PRES   REMARKS
BOSTON         FAIR      82  59  45 VRB3      30.07F                  
WORCESTER      FAIR      76  59  55 NW3       30.13S                  
NANTUCKET      FAIR      80  67  64 NW7       30.07S                  
PROVIDENCE     FAIR      82  59  45 N6        30.09S                  
HARTFORD       FAIR      82  53  36 N7        30.10F                  
ALBANY         FAIR      78  56  46 CALM      30.12S                  
NEW YORK CITY  FAIR      81  61  50 NE9       30.10S                  
$$

ANZ081-ANZ082-ANZ150-NHZ014-MEZ023>029-201600-
COASTAL MARINE OBSERVATIONS
  
STATION/POSITION TIME  TEMP    WIND        PRES    WAVE
                       AIR SEA DIR/SP/G            HT/PER
                 (UTC) (F)     (DEG/KT/KT) (MB)    (FT/S)
MATINICUS ROCK   1450   68                 1017.4R
ISLE OF SHOALS   1400   72     330/  9/  9 1017.7R
JEFFREYS LEDGE   1438      66                N/A     2/ 8
CASHES LEDGE BUO 1450   64 63  330/  8/  8 1018.1R   2/ 9
GEORGES BANK BUO 1450   70 73  290/ 10/ 12 1017.6R   3/ 8
$$

.............KEY..............
   WCI - WIND CHILL
   TC  - TEMPERATURE IN CELSIUS
   VSB - VISIBILITY IN MILES
   HX  - HEAT INDEX
   FAIR- INDICATES FEW OR NO CLOUDS BELOW 12,000 FT, WITH NO 
         SIGNIFICANT WEATHER AND/OR OBSTRUCTIONS TO VISIBILITY.